Regional Weather Roundup
Issued by NWS

Home | Current Version | Previous Version | Graphics & Text | Print | Product List | Glossary Off
Versions: 1 2 3 4 5 6 7 8 9 10 11 12 13 14 15 16 17 18 19 20 21 22 23 24 25 26 27 28 29 30 31 32 33 34 35 36 37 38 39 40 41 42 43 44 45 46 47 48 49 50

001
ASUS43 KMKX 290211
RWRWI

WISCONSIN REGIONAL WEATHER ROUNDUP
NATIONAL WEATHER SERVICE MILWAUKEE/SULLIVAN WI
900 PM CDT SAT MAY 28 2016

NOTE: "FAIR" INDICATES FEW OR NO CLOUDS BELOW 12,000 FEET WITH NO
SIGNIFICANT WEATHER AND/OR OBSTRUCTIONS TO VISIBILITY.

WIZ001-002-006>008-014>016-023>028-290300-
NORTHWEST WISCONSIN

CITY           SKY/WX    TMP DP  RH WIND       PRES   REMARKS
SUPERIOR ARPT  CLOUDY    50  50 100 N6        29.80F
ASHLAND        CLOUDY    56  55  97 CALM      29.80F FOG
HAYWARD        LGT RAIN  62  60  93 NW3       29.79S
SIREN          CLOUDY    62  60  94 NE3       29.80R
CUMBERLAND     CLOUDY    61  59  94 CALM      29.79S
RICE LAKE      RAIN      61  59  91 CALM      29.80R
CHETEK         CLOUDY    61  61  99 E3        29.79S
LADYSMITH      CLOUDY    63  60  92 N3        29.80F
EAU CLAIRE     CLOUDY    62  61  96 CALM      29.77F
MENOMONIE      DRIZZLE   64  63  98 CALM      29.78F
NEW RICHMOND   CLOUDY    64  62  96 N5        29.79F
OSCEOLA        CLOUDY    64  64 100 N3        29.82S
$$

WIZ003>005-009-010-017-018-290300-
NORTH CENTRAL WISCONSIN

CITY           SKY/WX    TMP DP  RH WIND       PRES   REMARKS
MANITOWISH WTR NOT AVBL
ARBOR VITAE    MOCLDY    65  64  94 CALM      29.81S
WOODRUFF       MOCLDY    65  64  94 CALM      29.81S
RHINELANDER    CLOUDY    67  62  84 CALM      29.82S
EAGLE RIVER      N/A     64  63  96 CALM      29.82S
LAND O LAKES   FOG       64  63  97 CALM      29.84S VSB 1/2
PHILLIPS       CLOUDY    65  65 100 CALM      29.78F
TOMAHAWK       MOCLDY    65  62  89 CALM      29.80F
MEDFORD        TSTM      62  62  99 W12G31    29.82R
MERRILL        CLOUDY    68  64  88 CALM      29.80S
$$

WIZ029-030-035-036-043>047-290300-
CENTRAL WISCONSIN

CITY           SKY/WX    TMP DP  RH WIND       PRES   REMARKS
WAUSAU         CLOUDY    71  63  75 S9        29.79R
MOSINEE        MOCLDY    66  64  94 S5        29.82R
MARSHFIELD     MOCLDY    68  59  73 SW9       29.80R
STEVENS POINT  CLOUDY    65  61  85 S6        29.82R
WAUPACA        LGT RAIN  67  65  90 S8        29.83S
WAUTOMA        CLOUDY    66  63  90 SE6       29.84S
WISC RAPIDS    CLOUDY    67  63  87 S6        29.82R
CAMP DOUGLAS   CLOUDY    67  67 100 S10       29.80S
$$

WIZ011>013-019>022-031-037>040-048>050-290300-
NORTHEAST WISCONSIN

CITY           SKY/WX    TMP DP  RH WIND       PRES   REMARKS
ANTIGO         CLOUDY    66  62  85 CALM      29.82F
SHAWANO        CLOUDY    75  64  69 SE3       29.81R
OCONTO         PTCLDY    69  67  94 S7        29.82S
STURGEON BAY   NOT AVBL
GREEN BAY      MOCLDY    67  61  81 SW17G29   29.86R
MANITOWOC      CLEAR     67  60  78 SW18G26   29.90R
APPLETON       MOCLDY    64  59  82 SW13      29.84S
CLINTONVILLE   LGT RAIN  68  59  73 S13G31    29.84R
OSHKOSH        LGT RAIN  63  59  87 S10       29.85F
$$

WIZ032>034-041-042-053>061-290300-
SOUTHWEST WISCONSIN

CITY           SKY/WX    TMP DP  RH WIND       PRES   REMARKS
LA CROSSE      LGT RAIN  65  62  90 N7        29.79R
SPARTA         CLOUDY    66  63  90 S3        29.81R
VIROQUA        CLOUDY    66  62  87 S10       29.83R
BOSCOBEL       CLOUDY    69  65  86 S3        29.83R
PRAIRIE DU CHI CLOUDY    69  60  72 SW7       29.83R
PLATTEVILLE    CLOUDY    68  67  94 S6        29.86R
$$

WIZ056-057-062-063-064-067-068-290300-
SOUTH CENTRAL WISCONSIN

CITY           SKY/WX    TMP DP  RH WIND       PRES   REMARKS
REEDSBURG      CLOUDY    66  64  94 S7        29.82F
BARABOO/DELLS  CLOUDY    66  61  83 S6        29.84S
LONE ROCK      CLOUDY    67  65  93 CALM      29.84R
MINERAL POINT  CLOUDY    68  66  94 S6        29.86S
MADISON        CLOUDY    66  64  93 CALM      29.84S
MIDDLETON      CLOUDY    67  64  89 W5        29.85S
WATERTOWN      LGT RAIN  65  64  95 SW9       29.84F
MONROE         CLOUDY    68  63  83 S12       29.85F
JANESVILLE     CLOUDY    66  64  94 S6        29.85F
$$

WIZ051-052-058>065-066-070>072-290300-
SOUTHEAST WISCONSIN

CITY           SKY/WX    TMP DP  RH WIND       PRES   REMARKS
MILWAUKEE      TSTM      74  58  57 W18G30    29.91R
WAUKESHA       TSTM      63  57  82 SE10      29.91R
MILWAUKEE/TIMM PTCLDY    75  61  60 MISG      29.86S
RACINE         CLEAR     69  59  70 S10       29.89R
BURLINGTON     HVY RAIN  63  61  93 S7G21     29.90R
KENOSHA        CLEAR     77  64  64 S10       29.88R
FOND DU LAC    CLOUDY    63  61  93 E7        29.86F
SHEBOYGAN      CLOUDY    67  58  72 W16G30    29.91R
WEST BEND      HVY RAIN  63  59  88 SE10G29   29.90R
JUNEAU         LGT RAIN  62  60  94 SE5       29.87S
$$

LSZ147-162-290300-
LAKE SUPERIOR

STATION/POSITION TIME  TEMP    WIND        PRES    WAVE
                       AIR SEA DIR/SP/G            HT/PER
                 (UTC) (F)     (DEG/KT/KT) (MB)    (FT/S)
W MID LAKE BUOY  0150   41 38  340/  4/  6 1010.0F   1/ 3
DEVILS ISLAND    0200   45     300/  3/  3 1009.7F
PORT WING        0140   44     330/  2/  4 1009.8F
SAXON HARBOR     0120   55     130/  1/  9 1008.8F
$$

LMZ867-665-643>646-290300-
LAKE MICHIGAN

STATION/POSITION TIME  TEMP    WIND        PRES    WAVE
                       AIR SEA DIR/SP/G            HT/PER
                 (UTC) (F)     (DEG/KT/KT) (MB)    (FT/S)
CHAMBERS ISLAND  0100   68     150/  5/ 15 1010.2S
N MID LAKE BUOY  0150   53 47  190/ 14/ 14 1011.5R   4/ 6
NORTHPORT PIER   0100   62     160/ 11/ 18 1010.8S
SISTER BAY       0105   66     170/ 17/ 22   N/A
ALGOMA LAKESHORE 0132          210/  9/ 11   N/A
KEWAUNEE LAKESHO 0100   53                 1010.5
SHEBOYGAN LAKESH 0200   60     190/ 15/ 15 1011.9R
PORT WASHINGTON  0200   58     210/  3/ 14 1012.2S
S MID LAKE BUOY  0150   59 50  150/ 14/ 16 1011.9F   1/ 3
KENOSHA   LAKESH 0200   60     180/ 11/ 15 1011.9R
$$

TC  - TEMPERATURE IN CELSIUS
VSB - VISIBILITY IN STATUTE MILES
WCI - WIND CHILL INDEX
HX  - HEAT INDEX





USA.gov is the U.S. government's official web portal to all federal, state and local government web resources and services.